Theta_e
316 316 317 316 315 315 316 316 317 317 316 314 312 311 311 311 309 306 307 306 305 307 308 308 309 309 310 311 311 311 310 309 309 308 307 306 305 305 304 305 307 308 311 311 310 309 308 306 306 305 305 303 302 301 300 299 298 297 296 296 296 296 295 294 291 290 289 289 289 289 289 289 289 289
316 316 316 316 315 316 316 317 318 317 316 314 312 312 312 312 310 308 310 310 307 307 307 308 309 310 310 310 310 310 310 309 309 309 308 307 306 305 304 304 304 306 309 311 310 310 309 307 306 306 306 304 302 301 300 299 298 298 297 297 296 296 295 293 290 289 289 288 288 288 288 289 289 289
315 315 316 316 316 316 317 317 317 317 317 315 313 312 312 312 311 309 311 312 309 307 307 308 309 311 311 310 309 309 309 309 309 309 308 308 307 305 304 304 303 304 308 309 310 310 309 308 307 306 306 305 303 302 301 300 299 298 297 297 297 296 294 292 289 288 288 287 287 287 287 288 288 288
315 316 316 316 316 316 317 317 317 317 317 315 314 313 312 312 312 310 310 312 310 308 309 308 308 309 310 310 310 309 309 309 309 309 308 308 308 307 305 304 303 303 306 308 308 308 309 309 307 307 307 306 304 303 302 301 300 298 297 297 297 295 293 291 289 288 287 286 285 285 285 287 287 288
315 315 316 316 316 316 317 317 317 317 317 315 314 313 313 312 312 310 310 310 307 306 308 309 307 308 308 309 310 309 308 308 308 308 308 308 307 307 306 305 303 303 304 305 305 305 307 308 308 307 307 306 305 304 303 302 300 299 297 297 296 295 294 292 289 286 286 285 284 283 284 285 286 287
315 315 316 316 316 316 316 316 316 316 316 316 314 313 313 313 312 311 311 310 307 305 307 308 308 307 307 308 309 309 309 309 309 308 308 307 307 307 307 306 305 304 303 303 303 302 305 307 308 307 306 306 305 304 303 301 300 299 297 297 296 295 294 293 287 284 284 284 284 283 283 283 284 286
314 315 315 315 316 316 316 315 315 315 314 314 314 313 313 313 313 312 312 311 309 306 305 306 307 307 307 307 308 308 308 308 307 308 308 307 307 306 306 306 306 305 304 303 303 302 303 305 307 307 306 306 305 304 303 301 300 299 297 296 296 295 295 292 286 283 284 285 285 284 283 281 281 283
314 315 315 315 315 315 315 315 315 314 314 313 313 313 313 313 313 313 312 312 311 307 305 304 305 306 306 305 305 305 305 305 305 306 306 306 306 306 306 305 305 305 305 304 304 303 303 303 305 306 306 306 305 304 303 301 300 299 297 296 295 295 294 290 284 283 285 286 287 286 284 281 280 280
314 314 314 314 314 314 314 314 314 314 313 313 312 312 312 312 312 312 312 312 311 309 306 304 303 303 303 303 303 303 303 303 303 303 304 304 304 304 305 305 305 305 305 305 304 304 303 303 304 306 306 305 305 304 303 301 300 298 297 296 295 295 294 289 285 285 286 286 288 287 285 282 280 279
314 314 314 314 314 314 314 314 313 313 313 313 312 312 312 312 312 312 311 311 311 310 308 305 303 302 301 301 301 301 301 302 302 302 301 301 302 303 303 304 304 304 304 304 304 304 304 303 303 305 305 305 304 304 303 301 299 298 297 296 295 295 294 290 288 287 287 287 287 288 286 283 280 279
313 313 314 314 314 314 314 314 314 313 313 312 312 312 312 311 311 311 311 311 310 309 308 305 303 301 300 299 300 300 300 299 300 300 300 299 300 301 301 302 303 303 303 304 304 304 304 303 303 304 304 304 304 303 303 301 299 298 297 297 295 294 294 292 290 289 288 287 287 287 287 284 281 279
312 312 313 313 314 314 314 314 314 313 313 312 312 311 311 311 311 311 310 310 309 309 307 305 302 300 299 298 299 298 298 297 298 299 299 299 299 299 299 300 300 301 302 302 303 303 303 303 303 303 303 303 303 303 302 301 299 298 297 297 295 294 293 292 291 290 288 287 286 287 287 285 281 279
312 312 312 313 313 313 313 313 313 313 313 313 312 311 311 310 310 309 309 308 307 307 305 304 301 299 297 298 297 297 297 298 299 299 298 297 298 297 297 297 298 299 300 301 301 301 302 302 302 303 303 303 302 302 302 301 299 297 297 296 295 294 293 292 291 290 288 286 286 286 287 285 281 279
311 312 312 312 312 312 312 312 312 312 312 312 312 312 311 310 309 308 307 307 306 306 304 303 301 298 297 298 299 299 300 300 299 299 298 296 296 295 295 296 297 298 298 298 299 300 301 301 301 302 302 302 302 302 301 300 299 297 296 296 295 294 293 292 291 290 287 286 286 286 287 285 282 279
311 311 311 312 311 311 311 311 311 311 311 311 311 311 311 310 310 309 307 306 306 305 304 303 302 300 299 300 300 300 300 299 298 298 297 296 295 294 294 294 296 298 298 297 297 298 299 300 300 301 302 302 301 301 301 300 298 297 296 296 295 293 292 291 290 289 287 286 286 286 286 286 282 279
311 311 311 311 311 311 311 311 311 311 311 311 310 310 310 310 310 309 309 308 306 305 304 303 302 302 302 301 301 301 301 300 298 297 296 296 295 294 294 294 296 299 299 297 295 296 297 298 299 300 300 301 300 300 300 299 298 297 296 295 294 293 292 291 290 289 288 286 286 285 286 285 282 279
311 311 311 310 310 311 311 311 311 311 310 310 310 310 309 309 309 309 308 308 308 307 306 304 303 305 304 303 304 305 304 301 298 296 295 295 295 294 295 296 296 297 297 296 294 294 295 296 297 298 299 299 299 299 299 298 297 295 295 294 293 292 291 290 290 289 288 286 285 285 285 285 283 279
311 311 311 311 311 311 311 310 310 310 310 310 309 309 309 308 308 308 308 307 307 307 307 306 306 307 306 306 307 307 305 303 301 300 298 297 296 295 295 295 295 295 295 294 293 293 294 295 295 296 296 296 297 297 296 296 295 294 293 293 292 291 291 290 289 289 288 286 285 284 285 285 283 279
312 311 311 311 311 311 310 311 310 310 310 310 309 309 308 308 308 307 307 307 307 307 307 306 307 307 307 307 307 307 306 305 304 302 301 300 298 295 293 293 293 293 293 293 293 293 293 294 294 293 293 294 294 294 293 292 292 292 291 291 291 291 290 289 289 288 287 285 284 284 284 285 283 280
311 311 311 311 311 311 311 310 310 310 310 309 309 308 308 308 307 308 308 307 307 307 307 307 307 306 306 306 306 306 305 304 303 301 299 297 296 293 292 292 292 292 292 292 292 292 292 293 292 291 291 292 292 292 291 291 290 290 290 290 290 290 290 289 287 286 285 284 283 283 284 284 283 280
310 310 310 311 310 310 310 310 310 309 309 309 308 307 307 307 307 307 307 307 306 306 305 305 305 305 304 304 304 304 303 303 302 299 296 296 295 292 291 291 290 290 291 292 291 291 291 292 291 290 289 290 290 290 290 290 289 288 288 289 289 289 289 287 286 285 284 283 283 283 283 283 282 280
309 309 309 309 310 309 309 309 308 308 308 307 307 307 306 306 306 306 306 306 305 305 304 304 303 302 302 302 302 302 302 301 301 299 298 297 296 293 291 291 289 289 290 291 291 290 291 290 290 289 288 287 288 289 289 288 288 287 287 287 288 288 287 286 285 285 284 283 283 282 282 282 282 280
306 307 307 307 307 308 307 307 307 307 306 306 306 306 305 305 305 305 305 304 304 303 302 302 302 301 301 301 300 300 300 300 300 299 298 297 296 294 292 291 289 288 290 292 291 290 290 290 289 289 287 286 286 286 287 287 287 287 286 287 286 286 286 285 285 284 283 283 283 282 282 282 281 281
304 304 304 305 305 305 305 305 305 305 305 305 305 304 304 304 304 303 302 302 301 301 300 300 300 300 300 300 299 299 299 298 298 298 297 296 297 296 294 292 291 291 293 294 292 290 290 289 289 288 287 287 285 284 285 286 286 286 286 286 286 285 285 284 284 284 283 283 283 282 282 282 281 281
303 303 302 302 302 303 303 303 303 303 303 303 303 302 302 301 301 299 298 298 297 297 297 297 297 298 298 298 298 298 297 298 298 297 296 296 296 296 294 293 292 292 293 293 292 291 290 289 287 286 286 287 285 284 284 284 285 286 285 285 285 285 284 284 283 283 283 282 282 282 282 281 281 281
302 302 302 302 301 301 302 302 302 301 300 299 299 298 297 296 296 295 294 295 295 296 296 296 296 297 297 297 297 296 296 297 297 297 296 296 296 295 295 294 293 292 293 293 292 291 290 289 288 286 285 285 284 283 282 282 283 284 284 284 284 284 283 283 283 283 282 282 282 282 281 281 281 281
300 300 300 300 300 300 301 300 299 298 296 296 296 295 295 294 294 294 294 294 295 296 296 297 296 296 296 296 296 296 296 297 297 297 296 295 295 294 293 292 292 292 292 292 291 290 290 290 289 288 287 285 283 280 280 281 282 282 282 282 283 283 282 282 282 282 282 282 281 281 281 281 281 280
297 297 297 297 297 298 298 297 296 295 295 295 295 295 294 294 293 293 294 294 295 296 296 296 296 296 296 296 296 297 297 296 296 295 294 294 293 292 292 291 291 291 291 291 290 290 289 289 289 288 288 286 283 280 280 280 281 282 281 280 281 281 281 281 281 281 281 281 281 281 281 281 281 280
295 295 294 294 294 295 295 296 295 295 295 294 294 294 294 293 293 293 294 294 295 295 295 295 295 296 296 296 296 296 296 295 295 294 293 292 291 291 291 290 290 290 289 289 289 289 288 288 288 288 287 286 284 283 282 281 280 281 281 280 280 280 280 280 280 281 280 280 280 280 280 280 280 280
294 293 293 293 294 294 295 295 295 294 294 294 294 294 294 294 293 294 294 294 294 294 294 294 295 295 296 295 295 295 294 294 294 293 292 291 290 289 289 289 288 288 287 287 287 287 287 287 287 287 286 285 284 284 283 281 280 280 280 279 279 279 279 279 280 280 280 280 280 280 280 280 280 280
293 293 293 293 294 294 294 293 293 294 294 294 294 294 294 293 293 294 294 294 294 294 294 294 294 294 295 294 294 293 293 292 292 291 290 289 288 288 288 287 286 286 286 286 285 285 285 285 286 286 285 285 284 283 282 282 280 279 279 279 279 279 279 279 279 279 280 279 279 280 280 279 279 279
293 293 294 294 294 294 293 292 292 293 293 293 293 293 292 292 293 294 294 294 294 294 294 294 294 293 293 293 293 292 291 290 290 290 289 289 289 288 287 286 285 284 284 284 284 284 284 284 284 285 284 284 284 283 282 281 280 279 279 278 278 279 280 279 279 279 279 279 279 279 279 279 279 279
293 294 294 294 293 292 291 291 292 292 292 292 292 292 291 292 292 293 293 293 293 294 294 293 293 293 292 292 292 291 290 289 289 289 289 288 288 287 286 285 284 284 283 283 283 283 283 283 283 283 283 283 282 282 281 280 279 279 279 279 278 278 279 279 279 278 278 279 278 278 278 278 278 278
293 293 293 293 292 292 291 291 291 291 291 291 291 291 291 291 292 292 292 292 293 293 293 293 292 292 292 291 290 290 289 288 288 288 288 288 287 286 285 284 283 283 283 282 281 281 282 282 282 281 281 281 280 280 280 280 279 279 279 279 279 280 279 279 278 278 278 279 278 277 277 278 278 278
292 292 292 291 291 291 290 290 290 290 290 290 290 290 290 290 290 291 291 292 292 292 292 292 292 292 291 290 289 289 289 288 287 287 286 286 286 285 284 283 282 282 282 281 281 280 280 281 280 279 278 278 278 278 279 279 279 279 278 278 279 280 280 279 278 278 278 278 277 277 276 276 277 277
292 291 291 290 290 290 290 290 290 290 290 290 290 290 290 290 290 290 290 291 291 291 291 291 291 291 290 290 289 289 288 287 286 285 285 284 284 284 284 283 282 282 281 281 281 280 279 279 279 278 277 276 276 277 278 278 279 279 278 278 278 279 280 279 278 277 278 278 277 276 275 276 276 277
291 291 290 290 290 290 290 290 290 290 290 290 290 290 290 289 289 290 290 290 290 291 291 291 291 291 290 289 289 288 287 287 286 285 284 284 283 283 282 282 281 281 281 280 280 280 279 278 278 278 277 276 276 277 277 278 278 278 278 279 279 278 279 279 278 277 277 276 276 275 275 275 276 276
291 290 290 290 290 290 290 290 290 290 290 290 290 290 290 290 290 290 290 290 290 290 290 290 290 290 290 289 289 288 287 286 285 285 284 283 283 282 282 281 281 281 280 279 279 279 278 278 277 277 277 277 277 277 277 277 277 277 277 278 278 279 279 278 278 278 277 276 275 274 275 275 275 276
291 290 290 290 290 290 290 290 290 290 290 290 290 290 290 290 290 290 290 290 290 290 290 290 290 290 290 289 289 288 287 286 285 284 284 283 283 282 282 281 281 280 279 278 277 277 277 277 277 277 278 278 278 279 279 278 277 277 277 277 278 279 279 279 279 279 278 276 274 274 274 274 275 275
290 290 290 290 290 291 290 290 290 290 290 290 290 290 290 290 290 290 290 289 289 289 289 290 290 290 289 289 289 288 287 286 286 285 284 283 283 282 282 281 281 280 279 277 276 276 277 278 279 279 279 279 278 279 279 279 278 278 278 277 278 279 280 281 281 281 278 276 275 274 274 274 274 275
290 290 290 290 290 290 290 290 290 290 290 290 289 290 290 290 290 290 290 289 289 289 289 289 289 289 288 288 288 288 286 285 285 285 284 283 282 282 282 281 281 280 278 277 276 276 278 279 280 279 278 278 278 278 279 279 278 277 278 278 278 278 279 279 280 280 279 277 275 274 273 272 273 273
289 290 290 290 290 290 290 290 290 290 290 289 289 289 289 290 290 290 289 289 289 289 289 288 288 288 288 288 288 287 286 285 285 284 283 282 282 281 281 281 280 280 279 278 278 278 279 279 278 278 277 277 277 278 279 279 279 278 278 278 277 277 278 278 278 277 277 276 275 274 273 272 272 272
289 289 290 290 290 290 290 290 290 290 289 289 289 289 289 289 289 289 289 289 288 288 288 288 288 287 287 287 287 287 286 285 285 284 283 282 282 281 281 281 281 280 280 279 279 278 278 277 277 277 276 276 276 278 279 280 280 280 279 277 276 276 276 276 276 275 275 274 274 274 275 275 274 274
289 289 289 290 290 290 290 290 290 289 289 289 289 289 289 289 289 289 289 288 288 288 288 287 287 287 287 287 287 286 286 286 285 285 283 283 282 282 281 281 281 280 280 279 278 277 277 276 276 276 276 276 276 277 278 279 280 280 279 277 275 275 275 275 274 273 273 273 273 273 274 274 274 275
289 289 289 289 289 289 289 289 289 289 289 289 289 289 289 289 289 289 288 288 288 288 287 287 287 287 286 286 286 286 286 286 285 285 284 283 282 282 281 281 280 280 279 279 278 277 276 275 275 275 275 276 276 277 278 279 279 279 278 276 275 274 274 274 273 272 272 273 273 273 272 273 273 274
Wind_Speed
35 35 31 26 27 27 25 29 31 27 27 31 36 38 35 26 14 6 7 8 14 23 28 31 36 40 41 40 41 40 37 36 35 35 37 36 35 35 35 33 31 30 28 26 26 27 28 27 26 26 24 22 22 21 20 19 18 18 17 15 13 12 11 10 8 7 6 5 4 3 2 1 1 2
35 35 33 29 27 26 23 26 30 30 28 32 37 37 35 31 22 15 11 11 19 26 29 32 35 40 45 44 43 44 41 38 36 36 37 37 37 36 36 35 34 33 32 30 28 27 29 29 27 26 26 24 22 22 21 20 20 19 17 15 15 14 12 10 9 8 6 5 5 4 3 1 1 2
37 36 35 34 30 28 25 23 26 30 30 31 36 37 33 30 28 25 16 9 17 28 31 33 35 39 46 47 45 44 44 42 40 39 39 38 38 37 37 37 36 36 35 35 32 28 28 29 27 27 27 25 24 23 21 21 21 20 17 16 16 15 14 13 10 7 7 7 6 5 4 2 1 2
35 35 35 37 35 31 27 24 25 30 30 30 34 36 35 31 28 28 22 9 11 27 35 35 35 35 39 44 46 45 45 45 44 42 41 40 39 39 39 39 38 38 37 36 34 30 29 30 28 27 27 26 25 24 22 22 22 21 19 18 18 18 19 18 13 8 7 7 7 6 4 2 1 3
33 34 34 36 36 33 29 25 25 29 30 28 31 34 34 33 29 28 26 13 7 18 28 29 32 35 34 37 43 45 45 45 46 46 45 43 41 41 41 40 40 40 39 38 36 33 32 32 31 29 28 27 26 25 24 24 24 23 21 20 21 23 22 20 15 11 9 7 6 6 4 2 2 3
33 32 33 34 35 33 30 27 25 26 27 27 29 32 34 34 31 29 27 18 10 14 21 24 28 33 34 35 39 43 46 47 47 47 48 46 45 44 43 41 41 41 42 41 39 37 35 34 33 32 30 29 29 28 26 26 26 26 23 23 26 26 24 20 16 12 11 9 7 6 4 4 4 3
32 33 32 32 34 33 30 28 26 23 24 26 28 32 33 33 32 30 28 23 16 16 20 23 26 30 34 36 37 40 42 44 45 46 47 47 46 45 43 42 42 42 43 43 42 39 38 37 36 35 33 32 32 31 29 29 29 28 27 28 30 28 25 21 16 12 10 8 8 7 5 5 6 5
30 31 32 31 33 33 31 28 27 25 24 24 26 29 30 30 31 29 27 25 21 18 20 21 24 28 31 33 33 34 36 38 39 41 43 44 44 45 44 43 43 43 43 44 44 42 40 38 37 37 36 35 35 34 33 32 32 31 32 32 32 30 27 22 15 10 8 7 8 7 5 5 7 9
31 30 31 31 32 32 31 30 29 28 26 25 25 26 27 27 27 26 25 24 21 19 21 22 22 24 26 28 28 29 31 34 35 36 38 40 41 42 43 44 44 44 43 43 44 44 42 40 38 38 39 38 37 37 36 35 34 34 35 34 33 31 29 24 16 11 8 7 8 8 6 5 7 10
32 31 30 31 32 33 33 33 32 31 29 27 26 26 26 26 26 25 24 22 20 18 19 21 22 23 24 25 25 26 28 31 32 33 33 35 37 39 41 44 45 45 44 43 43 44 45 44 41 39 41 41 39 39 39 38 37 37 38 36 34 33 32 27 19 14 11 9 9 9 7 5 7 11
31 30 30 31 32 33 34 34 34 33 32 30 28 28 27 26 25 25 24 23 20 18 18 18 20 22 23 23 24 25 26 27 29 31 30 32 36 38 39 42 43 44 44 44 43 43 45 46 44 41 41 42 41 40 41 40 40 41 40 38 35 35 33 29 22 17 14 10 8 9 8 6 7 11
28 27 28 30 31 33 34 34 35 35 34 32 29 28 27 26 26 26 26 24 22 21 19 18 18 19 20 22 22 22 23 24 28 31 32 32 33 35 36 38 38 40 42 43 43 42 42 44 45 42 41 42 42 42 42 43 43 44 43 40 37 36 34 29 23 20 16 12 8 8 9 7 7 11
27 27 28 29 30 31 32 32 32 33 33 32 31 29 27 27 27 26 26 25 24 22 19 17 17 17 19 22 23 23 25 28 29 30 31 31 29 28 29 32 35 36 38 39 41 42 40 40 42 42 42 43 43 42 43 45 46 45 43 41 39 37 33 28 24 21 17 12 9 7 8 7 7 10
27 28 29 29 29 29 29 29 29 30 30 30 30 29 29 28 28 27 26 25 24 23 21 21 20 19 19 24 27 27 28 29 26 24 26 27 25 21 21 25 31 35 36 37 38 40 41 39 39 42 43 44 44 43 45 47 46 45 44 42 41 38 33 28 25 22 17 13 9 7 8 8 7 10
28 29 29 29 28 28 27 27 27 27 27 27 27 27 28 28 28 27 26 26 26 25 23 22 22 22 23 26 27 27 27 26 25 24 24 24 23 21 18 17 23 30 35 36 36 39 40 39 39 41 42 44 44 44 46 46 45 45 44 43 41 37 32 28 25 21 17 14 10 8 8 8 8 10
29 29 29 29 28 28 28 27 26 25 25 25 24 24 24 25 25 26 25 25 26 26 25 23 24 26 26 25 26 28 27 26 25 24 23 23 24 24 22 21 23 26 29 32 34 35 35 36 38 40 41 42 44 45 45 45 45 45 45 43 41 38 32 28 25 21 18 15 12 8 8 8 8 10
30 30 29 28 28 27 27 26 26 25 24 23 22 22 23 23 23 24 24 24 24 25 26 26 27 28 28 27 27 29 29 27 25 25 25 26 26 25 26 28 28 24 22 25 28 27 29 32 35 36 37 39 41 42 43 44 44 44 44 43 41 37 32 28 24 21 19 16 13 9 7 8 9 11
30 30 29 29 28 28 27 27 26 25 24 23 23 23 23 23 23 23 23 24 24 24 25 25 26 27 27 27 27 27 27 27 26 26 27 27 27 27 27 25 23 21 20 19 20 20 23 28 29 29 29 31 34 36 37 39 41 42 42 41 39 36 32 27 23 21 19 17 14 9 8 9 9 11
29 28 28 28 27 27 26 26 25 24 24 23 23 24 24 24 24 24 23 23 24 24 25 25 26 26 26 27 26 26 26 26 25 26 25 25 24 23 21 18 18 18 18 16 18 16 17 21 24 23 22 25 28 30 30 31 32 34 36 38 38 35 30 26 23 21 19 16 13 10 8 9 10 12
25 25 25 25 25 24 23 23 22 22 22 23 23 24 24 24 24 24 24 24 23 24 25 25 26 26 26 26 25 26 26 25 25 25 21 19 18 16 14 14 16 16 15 17 20 16 11 15 21 21 19 22 24 27 28 26 25 26 29 32 34 32 28 25 22 20 18 16 13 11 9 9 11 13
22 22 22 23 22 22 21 20 20 20 20 21 22 22 21 21 22 23 23 22 22 23 24 25 25 26 26 25 25 25 24 24 25 23 20 19 18 16 13 11 13 15 17 18 21 18 12 13 18 19 18 20 22 24 27 27 25 23 24 27 29 28 26 23 21 20 18 16 13 11 10 10 11 14
20 20 20 20 21 21 20 19 19 19 19 19 20 20 19 19 20 20 19 19 19 20 21 22 24 24 24 24 23 22 22 23 24 24 23 21 20 19 15 11 10 12 18 22 21 19 15 15 17 19 16 16 20 23 25 27 27 22 21 23 25 25 24 22 21 19 18 16 14 12 11 11 12 15
17 18 18 18 18 19 19 19 18 18 18 19 19 18 18 18 19 18 17 17 17 17 17 17 19 20 21 21 21 21 20 20 21 22 23 22 21 20 19 15 11 7 13 22 23 22 19 19 21 21 15 9 13 21 25 26 27 24 22 22 22 22 22 21 20 19 18 16 14 13 13 13 14 16
18 18 18 18 18 18 18 18 19 18 18 18 18 18 19 19 19 18 17 17 16 15 14 13 12 12 14 16 18 19 18 19 19 19 21 22 22 22 21 21 18 13 13 17 21 24 23 22 23 25 20 10 7 14 22 27 28 27 25 24 23 22 22 22 20 19 18 16 14 14 14 14 15 17
21 20 20 19 18 18 18 18 18 18 17 18 18 19 20 20 19 17 16 15 14 13 13 12 11 11 11 12 14 17 18 19 19 19 20 21 22 23 23 23 23 23 21 18 17 22 24 23 23 24 23 16 10 11 17 25 30 31 29 28 28 25 24 24 22 20 18 16 15 15 16 15 16 18
22 22 22 21 20 19 19 18 18 18 18 18 19 19 18 17 16 14 12 11 11 11 12 12 12 12 12 12 14 16 17 18 18 19 20 21 22 23 24 24 24 25 24 21 18 21 23 24 24 25 25 21 16 13 15 20 27 32 32 30 30 29 26 26 25 22 20 18 17 17 17 17 17 18
24 23 22 22 22 21 20 19 18 18 18 18 17 16 15 14 13 11 10 10 11 12 13 14 14 14 14 14 15 16 17 17 17 18 20 21 22 23 24 25 24 24 24 21 19 20 22 25 26 28 28 25 18 14 14 15 20 28 32 31 30 30 28 27 26 24 23 21 19 18 18 18 18 17
24 23 22 22 21 20 20 20 19 18 18 17 15 15 14 14 13 11 11 12 13 14 15 16 16 16 15 16 16 17 17 16 16 17 18 20 23 24 25 25 24 24 23 22 20 20 23 26 27 27 28 26 21 16 15 14 17 24 30 30 28 28 28 27 26 26 24 22 22 22 21 22 21 19
23 22 20 19 17 16 17 19 19 18 17 16 15 15 14 14 14 15 14 15 15 16 17 18 17 17 17 16 16 15 15 15 16 18 20 22 23 24 24 24 24 23 23 22 21 20 22 25 26 24 24 25 23 20 18 16 17 22 27 29 28 28 29 28 27 27 26 24 24 26 26 26 25 24
20 19 19 18 17 15 16 18 19 19 18 17 16 16 16 16 17 18 18 18 19 19 19 18 18 18 17 16 15 14 15 17 19 20 22 23 23 23 23 22 21 20 21 20 20 19 20 22 24 23 23 24 24 23 21 19 18 20 24 28 27 25 26 28 27 27 27 27 27 28 29 29 28 27
18 17 17 17 16 15 15 18 19 19 19 19 19 19 19 19 20 21 21 21 20 20 20 19 19 18 17 16 17 17 18 19 20 21 22 22 22 22 21 19 18 18 18 19 18 18 18 20 21 22 23 24 24 23 22 21 21 20 22 27 26 21 23 29 30 28 28 28 28 29 31 30 30 30
18 18 17 16 16 15 16 17 18 18 19 19 20 21 21 21 21 22 22 21 21 20 20 19 19 18 18 18 19 19 19 19 20 21 21 21 21 21 21 19 18 18 18 17 17 17 17 18 19 20 22 24 24 24 22 20 20 21 22 25 27 23 20 25 31 31 30 29 30 31 31 31 32 32
22 22 21 19 18 17 16 17 17 18 18 18 20 22 22 22 22 22 22 22 22 22 21 21 21 21 20 20 20 19 19 20 21 21 21 21 21 22 21 20 19 19 19 18 17 17 18 18 18 19 21 23 23 23 22 19 19 21 22 23 26 26 22 22 27 31 32 31 31 31 32 33 34 34
25 24 23 22 21 20 19 19 19 20 20 20 20 21 22 23 23 23 22 23 23 23 23 23 23 22 22 21 21 21 21 21 21 21 22 23 22 22 22 20 18 18 18 18 17 18 18 18 18 18 18 19 19 19 20 20 20 21 23 24 25 26 25 23 24 28 31 31 31 30 32 34 35 35
25 24 23 21 21 21 21 21 22 22 22 22 22 21 21 22 23 24 25 25 24 23 23 23 22 22 22 22 22 22 22 22 22 22 22 23 23 22 22 19 17 17 18 18 18 18 18 18 18 16 13 12 12 14 18 22 22 21 24 25 24 24 25 24 23 24 28 30 29 29 29 31 33 33
24 24 23 21 21 22 22 22 23 23 23 23 23 23 22 22 22 24 26 26 25 24 23 23 22 21 22 22 22 23 23 22 22 22 23 23 22 21 20 18 16 17 18 19 19 19 18 18 18 17 12 8 5 7 14 22 25 23 25 27 26 24 24 24 23 23 25 28 30 29 28 28 30 29
23 23 23 22 22 23 23 23 23 23 23 24 23 24 24 24 24 24 24 24 24 24 23 23 22 22 22 23 22 22 23 23 23 23 23 23 21 20 18 16 16 17 18 19 19 20 20 19 20 18 14 8 3 4 10 19 25 26 26 26 26 25 24 23 23 23 25 27 30 31 29 28 27 24
23 23 23 22 22 23 23 23 23 23 24 24 24 24 24 24 24 23 22 21 22 22 22 22 22 23 23 23 23 22 22 22 22 22 22 22 21 20 18 17 16 17 18 18 19 20 21 20 21 21 17 10 6 5 7 13 20 26 27 26 25 25 25 24 24 24 26 27 28 29 29 28 26 23
24 24 23 22 22 23 23 23 23 23 23 24 24 24 23 22 22 22 21 21 21 21 21 21 23 23 24 24 24 23 22 22 22 22 22 23 22 21 20 19 18 18 18 18 19 20 22 23 24 25 24 19 13 9 9 12 17 22 27 28 27 26 25 26 25 25 25 26 27 27 27 26 24 23
25 24 23 23 23 22 23 23 23 23 23 23 23 24 24 23 22 22 22 21 19 19 20 21 23 24 24 24 23 23 22 23 23 23 23 23 23 22 21 20 19 19 19 19 20 22 25 26 26 26 27 25 17 10 8 10 12 17 23 29 29 27 25 25 25 24 24 25 25 25 24 24 23 22
24 23 23 23 23 23 23 23 23 22 22 23 23 23 23 23 23 23 21 20 18 18 19 21 23 24 24 23 23 22 22 22 23 23 23 23 22 22 21 19 18 19 20 20 21 24 26 26 25 23 23 23 18 10 6 7 9 13 20 26 27 28 27 24 22 21 21 23 23 23 21 20 19 20
24 22 22 22 22 23 23 24 23 23 23 23 23 23 23 23 23 22 21 19 18 18 19 21 23 23 23 22 22 22 22 22 23 23 22 22 21 21 20 19 19 21 22 22 23 25 25 22 21 21 21 21 19 14 10 9 10 13 17 21 24 26 27 25 22 20 19 20 20 19 17 14 11 13
23 22 21 21 22 22 23 23 24 24 23 23 23 23 23 23 23 23 21 20 20 19 20 21 22 22 22 21 21 21 22 22 23 22 22 22 22 21 22 22 22 22 22 20 19 20 19 18 19 20 21 21 21 18 14 12 12 14 16 17 21 23 23 22 21 20 19 19 18 17 16 13 9 8
24 23 22 22 22 22 22 23 24 24 23 23 23 23 24 24 24 24 23 22 21 20 20 19 20 21 21 21 21 22 22 23 23 23 22 23 23 22 22 23 22 21 20 18 15 15 16 17 17 19 21 22 22 21 16 12 12 14 15 16 19 21 21 19 19 19 20 19 18 17 17 17 15 14
23 23 23 23 23 22 22 23 23 22 22 23 23 24 24 25 24 24 23 22 21 20 19 19 20 21 21 21 22 23 23 23 24 23 23 23 23 22 22 21 21 20 19 19 18 17 16 17 17 19 21 22 21 20 17 13 10 13 15 15 17 19 20 20 20 21 21 20 19 19 19 19 19 18
Wind_Direction
196 193 191 187 184 186 188 191 193 195 195 190 183 180 180 175 165 162 185 203 211 207 205 205 206 206 204 203 203 203 204 207 209 209 212 216 215 212 212 209 206 207 212 213 211 210 209 205 207 211 210 209 208 207 207 207 205 206 208 205 203 204 202 197 196 196 190 181 171 154 139 120 5 337
193 191 190 185 182 183 184 188 192 194 196 194 188 187 189 185 178 174 181 202 205 202 205 208 209 208 207 208 208 208 208 208 210 213 214 218 220 218 215 213 212 210 209 211 213 216 214 208 208 211 210 209 209 208 208 207 207 207 207 204 204 206 202 193 192 197 194 185 179 166 150 153 298 314
191 189 188 184 181 183 185 187 191 195 199 197 191 189 191 193 192 185 178 197 206 201 204 209 211 212 211 211 212 212 212 212 213 216 218 220 222 221 219 218 217 214 212 213 214 216 216 212 211 211 211 211 209 207 207 208 209 209 206 204 204 206 205 197 190 191 200 203 195 183 170 170 266 290
190 186 184 182 180 181 183 185 191 197 200 198 193 192 193 196 199 194 188 189 198 201 207 209 209 214 215 214 215 217 217 217 217 218 221 222 223 222 223 222 220 218 217 216 217 219 219 217 216 214 214 214 209 206 205 206 208 209 206 204 203 206 209 209 209 203 203 214 213 203 197 196 252 277
192 186 181 180 180 178 179 183 190 196 199 196 193 193 195 198 200 199 197 190 166 192 205 210 209 213 216 216 218 219 220 221 220 221 223 224 224 224 225 224 223 222 220 219 220 223 223 220 218 216 216 216 212 208 205 203 206 207 205 203 204 207 212 220 227 221 211 218 224 219 220 226 237 266
193 189 183 180 179 178 179 183 187 192 194 194 193 193 195 197 200 202 199 190 163 171 192 205 209 213 216 218 220 222 222 223 223 223 224 224 225 226 227 226 225 225 224 222 223 225 225 223 219 217 216 217 214 209 205 204 205 205 202 202 207 213 217 223 228 223 218 226 228 224 228 235 239 256
191 189 183 178 178 179 180 183 186 187 188 190 191 193 196 198 200 204 203 198 184 168 179 196 204 210 215 218 222 224 224 225 225 225 226 227 227 227 227 227 227 227 226 225 225 225 226 226 223 220 217 218 216 211 206 205 206 204 201 204 212 216 219 222 223 218 221 234 239 232 228 235 244 250
187 186 181 176 176 178 179 181 186 188 187 188 189 190 194 198 200 203 205 206 200 181 176 187 198 205 211 215 220 223 223 224 227 229 230 230 230 229 228 228 228 228 227 227 226 226 227 228 226 223 219 218 219 215 210 207 206 205 203 206 213 215 216 217 215 212 225 251 260 252 240 240 251 252
186 182 180 179 178 178 180 182 187 192 192 190 190 190 192 194 196 197 200 203 204 195 184 183 191 200 205 209 215 220 221 222 225 229 232 233 233 232 232 230 230 229 229 228 227 226 227 228 227 225 222 220 220 217 214 210 208 206 205 208 213 215 214 214 213 219 237 265 278 271 259 251 259 260
187 183 181 182 182 183 185 188 192 197 199 198 197 196 195 194 194 196 200 202 204 202 193 188 192 196 201 206 211 216 219 220 223 226 230 233 234 235 234 233 233 231 230 230 228 226 226 226 227 226 224 222 221 219 216 213 211 208 207 209 213 214 214 214 218 227 239 262 281 280 272 262 265 268
190 188 187 187 188 190 192 196 199 201 203 204 205 204 202 200 200 203 207 208 207 204 197 193 195 196 199 205 210 215 218 219 223 226 226 230 233 234 235 235 235 233 232 232 231 229 227 226 227 228 227 224 223 221 218 215 213 210 209 210 212 213 214 216 222 229 236 251 274 282 279 273 271 272
196 195 195 196 197 199 201 204 205 205 206 207 208 210 209 208 208 208 208 208 207 204 198 195 196 195 197 202 209 213 213 213 222 226 225 229 233 234 235 237 237 236 236 235 234 233 230 228 228 229 228 226 225 223 219 216 214 211 210 211 212 212 213 216 222 226 229 240 261 282 285 279 275 274
201 202 204 206 207 208 208 209 210 211 212 212 212 212 211 210 209 208 206 204 202 199 196 195 193 190 195 203 205 207 211 215 222 225 225 228 234 237 239 241 240 239 239 238 237 236 234 233 232 231 229 227 225 223 220 217 214 211 210 212 212 211 213 215 220 222 223 232 250 278 287 279 273 273
202 206 210 212 213 213 213 214 215 216 217 220 222 221 220 217 213 206 203 203 202 198 196 197 195 191 200 209 210 214 221 224 224 225 224 225 229 234 239 245 245 241 239 238 239 238 236 235 235 233 231 229 226 222 220 217 213 210 211 213 211 210 212 215 217 218 219 228 245 270 284 279 269 267
203 207 211 214 214 215 215 216 218 220 222 225 227 228 228 228 224 216 209 205 204 202 201 203 202 201 211 220 220 221 227 228 225 226 226 222 221 222 224 236 246 245 239 235 236 238 236 234 234 233 231 230 226 223 220 217 213 212 213 212 211 211 213 214 215 217 219 228 242 261 278 278 265 260
206 207 209 211 213 214 216 217 218 220 223 226 227 228 230 231 231 230 226 220 214 209 206 205 207 213 220 224 226 228 231 231 228 227 227 224 221 218 218 226 239 248 244 233 231 236 236 232 232 232 231 229 227 224 221 217 214 214 213 211 210 211 212 212 214 218 221 228 238 253 273 276 263 256
207 207 207 208 211 215 217 218 219 219 221 224 225 228 229 230 232 234 235 235 232 227 220 213 215 225 226 226 234 240 237 231 226 222 223 226 223 220 224 231 238 247 248 232 225 233 237 232 231 231 230 229 227 224 221 217 214 212 211 211 211 211 211 212 215 220 223 227 234 243 264 271 260 251
209 210 210 209 211 214 215 217 219 220 221 221 222 223 225 228 231 232 233 235 236 236 233 227 229 237 237 237 245 249 242 237 234 230 230 231 227 225 229 236 240 246 250 238 226 231 238 234 229 228 228 227 224 220 217 212 209 208 208 210 210 210 211 212 216 222 225 227 231 235 253 266 258 248
212 212 212 212 212 213 214 217 219 220 221 221 221 222 224 227 229 231 234 236 236 237 239 239 242 246 248 249 252 252 249 249 247 244 243 242 237 230 228 234 240 244 247 237 224 226 237 233 227 226 228 227 222 217 212 207 206 205 206 208 210 211 212 214 216 219 221 222 227 232 245 260 256 246
213 213 213 213 214 215 216 218 219 220 221 220 220 221 223 225 228 232 237 239 240 242 245 247 249 251 252 253 253 253 254 253 248 241 238 238 232 219 214 225 235 237 238 230 222 222 234 234 225 222 225 228 225 220 213 205 200 203 206 208 210 211 213 214 213 213 213 215 224 233 241 255 256 245
213 214 215 215 215 216 216 216 216 216 217 217 217 217 218 221 226 232 236 237 239 242 243 246 247 248 249 250 250 251 251 251 246 235 226 226 223 207 201 215 223 226 233 231 221 218 228 232 222 215 220 227 226 222 217 208 200 203 210 211 211 213 214 211 208 208 210 213 220 229 235 247 251 241
211 212 214 216 216 214 212 209 208 208 209 209 208 209 210 214 221 227 229 230 233 234 235 237 240 241 243 244 245 247 247 247 245 238 231 230 222 208 204 205 204 221 238 235 219 211 220 227 216 210 213 222 224 222 217 209 203 203 208 212 213 214 212 208 206 207 210 213 217 222 228 237 240 235
197 200 201 205 207 206 203 200 200 202 204 204 204 205 206 210 218 222 223 224 227 228 230 233 236 238 241 241 242 244 244 245 247 245 240 235 226 216 211 201 184 201 244 238 219 206 212 219 215 209 204 209 226 223 216 209 204 202 205 208 209 210 209 208 207 208 210 214 217 217 217 221 226 231
182 186 188 191 193 194 193 194 197 200 203 205 207 209 211 216 221 224 226 228 231 232 234 237 238 240 242 241 240 239 239 240 243 242 238 236 234 228 217 205 200 212 243 243 221 208 211 216 214 211 206 204 219 218 214 212 208 205 206 205 203 205 207 207 206 206 211 216 216 212 208 209 221 233
186 186 188 189 191 193 194 197 201 205 209 214 217 220 223 226 226 225 227 231 235 238 240 242 244 244 240 237 236 233 231 233 235 234 232 234 237 235 225 215 213 221 237 246 229 211 210 211 210 207 207 211 214 205 206 211 211 210 209 206 203 203 203 202 203 204 207 210 209 206 206 210 223 237
195 197 197 197 197 200 203 208 213 214 214 215 217 220 221 221 221 222 222 222 225 229 230 230 233 234 230 226 225 224 223 227 230 231 231 233 236 237 233 228 225 228 236 244 235 218 213 214 212 205 202 207 212 205 199 204 209 210 210 208 206 205 203 202 204 206 205 204 204 206 210 216 226 235
204 206 208 209 211 213 214 214 212 207 205 206 210 213 216 219 221 218 208 206 215 221 220 216 215 217 218 218 219 220 223 226 229 230 230 231 231 232 231 230 232 235 240 242 238 226 221 222 221 215 210 207 202 197 197 202 207 209 209 209 209 208 206 208 210 211 210 209 208 208 212 219 224 226
210 209 212 216 218 215 210 206 202 199 201 206 212 218 225 228 222 206 198 207 217 216 211 207 207 210 214 217 220 223 225 226 227 227 227 227 227 227 228 229 231 234 238 240 239 231 225 225 226 224 220 213 204 200 204 209 211 210 208 208 209 210 210 212 215 215 213 211 211 210 214 221 224 219
207 206 207 210 211 208 204 200 198 199 202 208 216 226 231 224 211 202 206 215 215 208 203 203 206 212 218 222 226 228 227 224 223 222 221 221 221 222 224 227 229 233 235 237 239 234 227 227 230 229 224 219 216 215 215 212 213 212 208 206 209 212 212 213 215 215 213 212 214 217 222 227 228 224
204 203 202 202 205 206 204 200 198 198 202 209 218 221 218 211 204 205 210 213 209 205 205 208 213 219 223 226 228 229 226 223 221 218 216 214 213 216 219 220 222 227 230 232 234 233 227 227 231 231 226 222 221 222 222 217 213 211 209 207 207 208 209 209 210 213 214 216 219 223 228 231 231 233
203 199 196 199 204 206 203 200 200 202 205 210 212 210 207 207 207 208 211 214 213 211 213 216 220 224 224 223 223 223 222 222 220 218 215 211 209 212 215 214 215 222 226 227 228 227 224 225 229 230 227 223 220 222 225 224 217 211 208 207 207 208 209 207 207 210 215 218 221 224 227 230 232 235
196 192 191 197 204 205 201 198 199 202 206 208 209 207 206 207 207 207 210 214 215 217 219 219 219 219 218 217 218 219 219 219 219 218 215 213 212 211 210 207 208 215 220 223 224 222 220 221 225 229 230 228 226 223 222 221 219 216 211 208 209 212 214 209 207 210 213 216 221 225 228 231 233 236
189 187 190 196 198 198 196 195 197 202 206 207 208 209 208 206 205 206 208 209 211 214 216 216 213 212 211 211 213 214 214 215 217 216 215 213 212 209 206 204 208 212 215 217 218 216 215 216 219 223 227 228 229 227 221 215 215 217 216 212 209 209 211 211 209 211 213 215 219 225 229 233 235 236
184 184 187 192 193 192 192 194 197 200 201 201 203 206 207 207 205 205 207 209 210 211 213 212 210 209 208 205 205 206 208 210 213 215 215 213 210 205 202 201 205 211 213 213 213 211 209 209 209 212 220 224 226 227 223 218 217 217 216 214 211 209 210 211 210 213 216 218 219 222 227 233 236 237
183 184 186 189 191 192 193 197 199 200 200 201 201 202 203 206 206 205 207 210 210 210 211 211 209 209 207 203 202 205 206 207 208 209 209 210 209 206 203 200 201 206 209 210 211 208 205 203 199 195 199 210 218 225 224 222 222 219 212 210 211 212 212 212 211 212 215 218 219 221 227 233 237 239
187 188 189 191 193 194 197 200 201 201 202 203 202 200 199 201 204 206 208 210 209 209 210 209 208 207 206 203 203 205 206 205 204 201 202 205 206 205 203 199 200 206 209 211 212 209 203 200 194 183 171 171 192 225 227 222 222 222 216 210 208 210 213 214 213 212 216 219 219 220 225 234 240 242
192 192 193 195 196 197 200 202 203 204 205 204 203 202 202 202 205 208 210 210 209 208 209 208 207 207 206 204 203 204 205 205 203 201 202 204 204 201 198 194 197 204 208 212 214 210 202 196 190 180 169 160 171 227 231 224 222 224 223 217 209 207 210 212 211 212 218 221 222 223 227 234 242 246
195 194 194 196 197 199 202 204 205 206 206 204 204 204 205 207 209 210 209 208 207 207 207 207 208 208 206 204 202 200 202 204 205 204 204 203 201 198 195 191 193 201 204 207 210 208 201 196 190 185 181 183 200 217 219 218 218 220 222 221 217 212 210 211 212 215 220 222 223 227 232 236 241 246
196 194 194 196 198 200 203 206 207 206 204 203 204 204 203 205 207 206 203 203 204 205 204 206 208 208 205 205 204 204 205 205 205 205 206 205 204 202 197 193 193 195 195 197 201 201 199 198 197 197 198 202 211 223 224 221 223 221 219 219 220 218 214 214 215 218 222 223 223 226 231 235 241 246
196 196 196 198 200 202 204 205 205 204 203 202 204 204 202 201 201 198 196 197 199 199 201 205 208 207 204 204 204 205 207 208 209 210 209 208 207 204 200 197 194 191 189 190 193 197 202 206 209 211 210 209 215 236 248 235 231 227 220 218 220 222 223 223 222 220 222 223 223 224 228 232 236 240
195 197 199 200 201 202 203 203 202 203 203 204 205 205 203 202 200 198 198 199 198 197 201 206 207 205 203 202 203 204 204 205 209 211 210 208 207 206 203 198 193 190 189 190 196 205 214 219 220 218 214 210 211 223 234 219 216 220 218 216 217 221 225 229 231 231 232 229 222 217 220 227 234 240
196 198 200 201 201 201 200 200 200 201 204 205 206 205 205 204 203 202 202 202 200 201 203 206 206 205 203 202 203 205 206 206 208 209 208 206 204 203 202 198 195 195 197 201 209 217 223 224 219 213 210 207 205 206 212 215 217 220 217 212 210 215 221 226 230 234 238 238 231 222 217 220 229 241
199 200 201 201 201 200 199 199 199 201 203 205 205 205 204 202 201 201 201 199 200 202 204 204 204 204 203 203 204 206 208 211 212 210 208 205 204 203 203 203 203 205 206 208 214 220 222 218 211 206 203 202 202 206 214 222 223 222 217 205 200 207 216 222 226 230 234 237 238 238 236 231 230 240
201 203 203 201 201 201 202 201 200 202 205 206 206 206 204 201 199 200 201 202 203 204 204 203 203 203 203 203 203 204 209 215 217 214 211 209 209 208 209 208 207 206 206 203 200 203 207 208 203 198 197 200 203 207 213 219 221 221 216 202 196 200 206 209 213 221 227 228 228 232 235 235 235 242
197 199 201 201 202 203 203 203 203 205 207 208 207 206 205 203 203 203 204 206 208 207 204 203 203 204 204 204 203 204 208 214 217 216 214 212 210 210 211 210 205 201 200 198 194 190 190 192 191 192 198 203 205 206 210 216 222 219 211 202 197 199 201 201 203 210 218 221 220 222 229 232 233 240